sat.trackr.live / text

‹ back to catalog

ALCOMSAT 1

NORAD 43039 · 2017-078A

PAYLOAD ACTIVE UNKNOWN

§ Identity

Operator
Country
ALG
Launch date
2017-12-10
Launch site
XICLF
Launch vehicle
Mass (kg)
RCS (m²)

Purposes: comms

External: N2YO · Heavens-Above · Gunter

§ Orbital elements

Epoch: 2026-09-19T23:31:38.584416Z

Period
1,436.07 min
Inclination
0.0453°
Eccentricity
0.0002081
Mean motion
1.00273495 rev/d
Perigee alt
35,777.3 km
Apogee alt
35,794.9 km
Semi-major
42,164.3 km
B*
0.0000e+0
RAAN
59.5258°
Arg perigee
110.1097°
Mean anomaly
157.3720°
Rev number
3,224

§ Raw data

ALCOMSAT 11 43039U 17078A   26262.98030769 -.00000190  00000+0  00000+0 0  99912 43039   0.0453  59.5258 0002081 110.1097 157.3720  1.00273495 32244

JSON: /api/v1/satellites/43039 · /tle

For live sub-satellite position, see the globe view (requires WebGL).

§ Visibility from observer

Set your observer location to see the next 7 days of passes ≥ 10°. The values pass through the URL so the page stays shareable.

No JS? Fill the form by hand. The geolocation button needs JavaScript.